Location: Bogis-Bossey
(46.3500°N, 6.1667°E)
Time: 17:34:46
(UTC+00:00)

ATLAS CENTAUR R/B - Pass Details

Date: 17 August 2022
Orbit: 444 x 683 km, 64.6° (Epoch: 31 August)

Event Time Altitude Azimuth Distance (km) Brightness Sun altitude
Rises 21:40:38 0° 328° (NNW) 3,041 6.5 -24.7°
Reaches altitude 10° 21:43:57 10° 351° (N) 2,101 5.2 -25.1°
Maximum altitude 21:46:46 15° 27° (NNE) 1,741 4.2 -25.3°
Enters shadow 21:49:14 11° 60° (ENE) 1,978 4.1 -25.5°
